Location: Alpha Ridge Park
(39.3209°N, 76.9128°W)
Time: 05:00:43
(UTC-04:00)

Transit 2A - Pass Details

Date: 28 May 2019
Orbit: 593 x 966 km, 66.7° (Epoch: 23 June)

Event Time Altitude Azimuth Distance (km) Brightness Sun altitude
Rises 17:32:09 0° 318° (NW) 3,473 10.0 31.1°
Reaches altitude 10° 17:35:14 10° 304° (NW) 2,465 9.7 30.5°
Maximum altitude 17:39:28 22° 255° (WSW) 1,675 9.5 29.7°
Drops below altitude 10° 17:43:24 10° 206° (SSW) 2,260 8.8 28.9°
Sets 17:46:07 0° 191° (S) 3,110 9.2 28.4°
